TimeCST,TemperatureF,Dew PointF,Humidity,Sea Level PressureIn,VisibilityMPH,Wind Direction,Wind SpeedMPH,Gust SpeedMPH,PrecipitationIn,Events,Conditions,WindDirDegrees,DateUTC
12:15 AM,71.6,64.4,78,29.93,10.0,South,16.1,23.0,N/A,,Clear,190,2012-12-03 06:15:00
12:35 AM,71.6,64.4,78,29.92,10.0,South,17.3,28.8,N/A,,Clear,190,2012-12-03 06:35:00
12:55 AM,71.6,64.4,78,29.92,10.0,South,17.3,24.2,N/A,,Clear,190,2012-12-03 06:55:00
1:15 AM,71.6,64.4,78,29.92,10.0,South,17.3,25.3,N/A,,Clear,190,2012-12-03 07:15:00
1:35 AM,69.8,62.6,78,29.92,10.0,South,18.4,24.2,N/A,,Clear,190,2012-12-03 07:35:00
1:55 AM,71.6,64.4,78,29.91,10.0,South,20.7,29.9,N/A,,Clear,190,2012-12-03 07:55:00
2:15 AM,68.0,62.6,83,29.91,10.0,South,20.7,26.5,N/A,,Clear,190,2012-12-03 08:15:00
2:35 AM,68.0,62.6,83,29.92,10.0,SSW,17.3,27.6,N/A,,Clear,200,2012-12-03 08:35:00
2:55 AM,68.0,62.6,83,29.92,10.0,South,17.3,25.3,N/A,,Clear,190,2012-12-03 08:55:00
3:15 AM,68.0,64.4,88,29.92,10.0,South,17.3,24.2,N/A,,Clear,190,2012-12-03 09:15:00
3:35 AM,68.0,64.4,88,29.91,10.0,South,16.1,23.0,N/A,,Clear,190,2012-12-03 09:35:00
3:55 AM,68.0,64.4,88,29.90,10.0,South,17.3,21.9,N/A,,Clear,170,2012-12-03 09:55:00
4:15 AM,68.0,64.4,88,29.89,10.0,South,19.6,24.2,N/A,,Clear,180,2012-12-03 10:15:00
4:35 AM,66.2,64.4,94,29.89,10.0,South,18.4,27.6,N/A,,Clear,180,2012-12-03 10:35:00
4:55 AM,68.0,64.4,88,29.87,10.0,South,18.4,25.3,N/A,,Clear,180,2012-12-03 10:55:00
5:15 AM,68.0,64.4,88,29.87,10.0,South,19.6,25.3,N/A,,Scattered Clouds,180,2012-12-03 11:15:00
5:55 AM,68.0,64.4,88,29.87,10.0,South,19.6,26.5,N/A,,Mostly Cloudy,190,2012-12-03 11:55:00
6:15 AM,68.0,64.4,88,29.87,10.0,South,18.4,25.3,N/A,,Mostly Cloudy,190,2012-12-03 12:15:00
6:35 AM,68.0,64.4,88,29.86,10.0,South,21.9,26.5,N/A,,Overcast,190,2012-12-03 12:35:00
6:55 AM,68.0,64.4,88,29.87,10.0,South,21.9,28.8,N/A,,Overcast,190,2012-12-03 12:55:00
7:15 AM,68.0,62.6,83,29.88,10.0,South,21.9,33.4,N/A,,Overcast,190,2012-12-03 13:15:00
7:35 AM,68.0,62.6,83,29.89,10.0,SSW,23.0,33.4,N/A,,Mostly Cloudy,200,2012-12-03 13:35:00
7:55 AM,68.0,62.6,83,29.89,10.0,South,19.6,28.8,N/A,,Mostly Cloudy,190,2012-12-03 13:55:00
8:35 AM,68.0,64.4,88,29.90,10.0,SSW,21.9,31.1,N/A,,Overcast,200,2012-12-03 14:35:00
8:55 AM,68.0,64.4,88,29.90,10.0,SSW,19.6,25.3,N/A,,Overcast,200,2012-12-03 14:55:00
9:15 AM,68.0,64.4,88,29.91,10.0,SSW,21.9,33.4,N/A,,Overcast,200,2012-12-03 15:15:00
9:35 AM,68.0,64.4,88,29.92,10.0,SSW,20.7,26.5,N/A,,Overcast,200,2012-12-03 15:35:00
9:55 AM,68.0,62.6,83,29.92,10.0,South,23.0,29.9,N/A,,Overcast,190,2012-12-03 15:55:00
10:15 AM,71.6,66.2,83,29.91,10.0,SSW,17.3,26.5,N/A,,Overcast,200,2012-12-03 16:15:00
10:35 AM,71.6,64.4,78,29.91,10.0,SSW,18.4,29.9,N/A,,Overcast,200,2012-12-03 16:35:00
10:55 AM,71.6,62.6,73,29.92,10.0,South,17.3,24.2,N/A,,Overcast,190,2012-12-03 16:55:00
11:15 AM,73.4,64.4,73,29.91,10.0,SSW,17.3,26.5,N/A,,Mostly Cloudy,200,2012-12-03 17:15:00
11:35 AM,75.2,64.4,69,29.90,10.0,South,20.7,31.1,N/A,,Mostly Cloudy,190,2012-12-03 17:35:00
11:55 AM,77.0,62.6,61,29.89,10.0,SSW,21.9,31.1,N/A,,Scattered Clouds,200,2012-12-03 17:55:00
12:15 PM,77.0,62.6,61,29.87,10.0,SSW,19.6,31.1,N/A,,Scattered Clouds,210,2012-12-03 18:15:00
12:35 PM,77.0,62.6,61,29.87,10.0,SSW,19.6,29.9,N/A,,Scattered Clouds,210,2012-12-03 18:35:00
12:55 PM,78.8,62.6,57,29.86,10.0,South,19.6,25.3,N/A,,Scattered Clouds,180,2012-12-03 18:55:00
1:15 PM,78.8,62.6,57,29.85,10.0,South,18.4,33.4,N/A,,Scattered Clouds,190,2012-12-03 19:15:00
1:35 PM,78.8,62.6,57,29.83,10.0,South,21.9,35.7,N/A,,Clear,190,2012-12-03 19:35:00
1:55 PM,78.8,60.8,54,29.82,10.0,South,24.2,31.1,N/A,,Clear,190,2012-12-03 19:55:00
2:15 PM,78.8,62.6,57,29.82,10.0,South,21.9,25.3,N/A,,Clear,190,2012-12-03 20:15:00
2:35 PM,80.6,60.8,51,29.82,10.0,South,24.2,28.8,N/A,,Clear,190,2012-12-03 20:35:00
2:55 PM,80.6,60.8,51,29.82,10.0,South,20.7,27.6,N/A,,Clear,190,2012-12-03 20:55:00
3:15 PM,80.6,60.8,51,29.82,10.0,SSW,19.6,29.9,N/A,,Clear,200,2012-12-03 21:15:00
3:35 PM,80.6,60.8,51,29.82,10.0,SSW,19.6,28.8,N/A,,Clear,200,2012-12-03 21:35:00
3:55 PM,80.6,60.8,51,29.81,10.0,South,20.7,28.8,N/A,,Clear,190,2012-12-03 21:55:00
4:15 PM,80.6,60.8,51,29.82,10.0,SSW,16.1,26.5,N/A,,Clear,200,2012-12-03 22:15:00
4:35 PM,78.8,60.8,54,29.83,10.0,SSW,16.1,21.9,N/A,,Clear,200,2012-12-03 22:35:00
4:55 PM,78.8,60.8,54,29.84,10.0,SSW,11.5,-,N/A,,Clear,200,2012-12-03 22:55:00
5:15 PM,77.0,60.8,57,29.85,10.0,SSW,12.7,-,N/A,,Clear,200,2012-12-03 23:15:00
5:35 PM,77.0,60.8,57,29.86,10.0,South,9.2,-,N/A,,Clear,180,2012-12-03 23:35:00
6:15 PM,75.2,60.8,61,29.87,10.0,South,9.2,-,N/A,,Scattered Clouds,180,2012-12-04 00:15:00
6:35 PM,73.4,60.8,65,29.88,10.0,South,9.2,-,N/A,,Clear,170,2012-12-04 00:35:00
6:55 PM,73.4,60.8,65,29.88,10.0,SSE,8.1,-,N/A,,Clear,160,2012-12-04 00:55:00
7:15 PM,73.4,60.8,65,29.89,10.0,South,8.1,-,N/A,,Scattered Clouds,170,2012-12-04 01:15:00
7:35 PM,73.4,60.8,65,29.90,10.0,South,5.8,-,N/A,,Overcast,170,2012-12-04 01:35:00
7:55 PM,71.6,60.8,69,29.91,10.0,South,5.8,-,N/A,,Scattered Clouds,170,2012-12-04 01:55:00
8:15 PM,71.6,60.8,69,29.92,10.0,SSE,6.9,-,N/A,,Scattered Clouds,160,2012-12-04 02:15:00
8:35 PM,71.6,62.6,73,29.94,10.0,West,6.9,-,N/A,,Mostly Cloudy,270,2012-12-04 02:35:00
9:15 PM,69.8,48.2,46,29.96,10.0,NW,11.5,-,N/A,,Mostly Cloudy,320,2012-12-04 03:15:00
9:35 PM,64.4,44.6,49,29.97,10.0,NW,8.1,-,N/A,,Scattered Clouds,320,2012-12-04 03:35:00
9:55 PM,62.6,44.6,52,29.98,10.0,NNW,6.9,-,N/A,,Scattered Clouds,340,2012-12-04 03:55:00
10:15 PM,62.6,44.6,52,29.98,10.0,NNW,8.1,-,N/A,,Clear,340,2012-12-04 04:15:00
10:35 PM,62.6,44.6,52,29.98,10.0,NNW,8.1,-,N/A,,Clear,340,2012-12-04 04:35:00
10:55 PM,62.6,44.6,52,29.99,10.0,North,6.9,-,N/A,,Scattered Clouds,350,2012-12-04 04:55:00
11:15 PM,62.6,44.6,52,29.99,10.0,NNW,11.5,-,N/A,,Overcast,340,2012-12-04 05:15:00
11:35 PM,62.6,46.4,55,29.99,10.0,North,9.2,18.4,N/A,,Overcast,360,2012-12-04 05:35:00
11:55 PM,62.6,46.4,55,30.00,10.0,North,13.8,-,N/A,,Overcast,360,2012-12-04 05:55:00